Stündliche Wetter Otrar

Heute, 10 April, Samstag

Zeit Temperatur Niederschläge Wind Luftdruck Luftfeuchtigkeit
00:00 +16°C° 0 mm 5 m/S 746 mmHg 40%
01:00 +16°C° 0 mm 5 m/S 745 mmHg 41%
02:00 +15°C° 0 mm 5 m/S 745 mmHg 41%
03:00 +15°C° 0 mm 5 m/S 745 mmHg 43%
04:00 +15°C° 0 mm 5 m/S 745 mmHg 44%
05:00 +14°C° 0 mm 6 m/S 745 mmHg 45%
06:00 +15°C° 0 mm 6 m/S 746 mmHg 43%
07:00 +16°C° 0 mm 6 m/S 746 mmHg 40%
08:00 +17°C° 0 mm 6 m/S 746 mmHg 38%
09:00 +20°C° 0 mm 7 m/S 746 mmHg 33%
10:00 +22°C° 0 mm 7 m/S 746 mmHg 28%
11:00 +24°C° 0 mm 7 m/S 746 mmHg 23%
12:00 +24°C° 0 mm 6 m/S 746 mmHg 21%
13:00 +26°C° 0 mm 6 m/S 746 mmHg 19%
14:00 +27°C° 0 mm 5 m/S 746 mmHg 16%
15:00 +27°C° 0 mm 4 m/S 746 mmHg 16%
16:00 +27°C° 0 mm 4 m/S 746 mmHg 16%
17:00 +27°C° 0 mm 3 m/S 745 mmHg 15%
18:00 +25°C° 0 mm 3 m/S 745 mmHg 22%
19:00 +22°C° 0 mm 3 m/S 745 mmHg 28%
20:00 +20°C° 0 mm 3 m/S 745 mmHg 34%
21:00 +18°C° 0 mm 3 m/S 745 mmHg 38%
22:00 +17°C° 0 mm 3 m/S 746 mmHg 41%
23:00 +14°C° 0 mm 3 m/S 746 mmHg 44%

Morgen, 11 April, Sonntag

Zeit Temperatur Niederschläge Wind Luftdruck Luftfeuchtigkeit
00:00 +13°C° 0 mm 3 m/S 746 mmHg 44%
01:00 +11°C° 0 mm 3 m/S 746 mmHg 45%
02:00 +10°C° 0 mm 3 m/S 746 mmHg 45%
03:00 +9°C° 0 mm 3 m/S 746 mmHg 46%
04:00 +8°C° 0 mm 4 m/S 746 mmHg 48%
05:00 +7°C° 0 mm 4 m/S 746 mmHg 50%
06:00 +7°C° 0 mm 4 m/S 746 mmHg 50%
07:00 +7°C° 0 mm 4 m/S 747 mmHg 50%
08:00 +7°C° 0 mm 5 m/S 747 mmHg 50%
09:00 +8°C° 0 mm 4 m/S 747 mmHg 47%
10:00 +11°C° 0 mm 4 m/S 747 mmHg 44%
11:00 +12°C° 0 mm 3 m/S 747 mmHg 41%
12:00 +13°C° 0 mm 3 m/S 747 mmHg 38%
13:00 +14°C° 0 mm 2 m/S 747 mmHg 35%
14:00 +15°C° 0 mm 2 m/S 747 mmHg 32%
15:00 +15°C° 0 mm 2 m/S 747 mmHg 31%
16:00 +16°C° 0 mm 2 m/S 747 mmHg 30%
17:00 +16°C° 0 mm 2 m/S 747 mmHg 29%
18:00 +14°C° 0 mm 3 m/S 747 mmHg 34%
19:00 +13°C° 0 mm 3 m/S 747 mmHg 39%
20:00 +12°C° 0 mm 4 m/S 747 mmHg 43%
21:00 +11°C° 0.1 mm 3 m/S 746 mmHg 47%
22:00 +11°C° 0.1 mm 3 m/S 746 mmHg 50%
23:00 +10°C° 0.1 mm 2 m/S 746 mmHg 54%

übermorgen, 12 April, Montag

Zeit Temperatur Niederschläge Wind Luftdruck Luftfeuchtigkeit
00:00 +10°C° 0.2 mm 2 m/S 746 mmHg 57%
01:00 +9°C° 0.2 mm 2 m/S 746 mmHg 59%
02:00 +9°C° 0.2 mm 2 m/S 746 mmHg 62%
03:00 +9°C° 0 mm 2 m/S 746 mmHg 62%
04:00 +8°C° 0 mm 2 m/S 746 mmHg 63%
05:00 +8°C° 0 mm 2 m/S 746 mmHg 63%
06:00 +8°C° 0 mm 2 m/S 746 mmHg 60%
07:00 +9°C° 0 mm 2 m/S 747 mmHg 57%
08:00 +9°C° 0 mm 2 m/S 747 mmHg 53%
09:00 +12°C° 0 mm 2 m/S 747 mmHg 48%
10:00 +13°C° 0 mm 2 m/S 747 mmHg 43%
11:00 +13°C° 0 mm 3 m/S 747 mmHg 37%
12:00 +14°C° 0 mm 3 m/S 746 mmHg 35%
13:00 +16°C° 0 mm 3 m/S 746 mmHg 32%
14:00 +17°C° 0 mm 3 m/S 746 mmHg 30%
15:00 +17°C° 0 mm 3 m/S 746 mmHg 31%
16:00 +17°C° 0 mm 3 m/S 746 mmHg 33%
17:00 +17°C° 0 mm 4 m/S 745 mmHg 35%
18:00 +16°C° 0 mm 3 m/S 746 mmHg 38%
19:00 +14°C° 0 mm 3 m/S 746 mmHg 42%
20:00 +14°C° 0 mm 2 m/S 746 mmHg 46%
21:00 +14°C° 0 mm 1 m/S 746 mmHg 48%
22:00 +13°C° 0 mm 1 m/S 746 mmHg 50%
23:00 +12°C° 0 mm 0 m/S 746 mmHg 51%

13 April, Dienstag

Zeit Temperatur Niederschläge Wind Luftdruck Luftfeuchtigkeit
00:00 +12°C° 0 mm 1 m/S 746 mmHg 54%
01:00 +12°C° 0 mm 2 m/S 746 mmHg 57%
02:00 +10°C° 0 mm 3 m/S 746 mmHg 60%
03:00 +10°C° 0 mm 3 m/S 746 mmHg 61%
04:00 +9°C° 0 mm 3 m/S 746 mmHg 63%
05:00 +9°C° 0 mm 3 m/S 746 mmHg 64%
06:00 +10°C° 0 mm 3 m/S 746 mmHg 60%
07:00 +11°C° 0 mm 3 m/S 747 mmHg 55%
08:00 +13°C° 0 mm 2 m/S 747 mmHg 51%
09:00 +13°C° 0 mm 3 m/S 747 mmHg 46%
10:00 +16°C° 0 mm 3 m/S 747 mmHg 40%
11:00 +18°C° 0 mm 3 m/S 747 mmHg 34%
12:00 +19°C° 0 mm 3 m/S 747 mmHg 32%
13:00 +20°C° 0 mm 4 m/S 747 mmHg 30%
14:00 +21°C° 0 mm 4 m/S 747 mmHg 27%
15:00 +21°C° 0 mm 3 m/S 746 mmHg 27%
16:00 +22°C° 0 mm 3 m/S 746 mmHg 26%
17:00 +22°C° 0 mm 3 m/S 746 mmHg 25%
18:00 +21°C° 0 mm 3 m/S 746 mmHg 28%
19:00 +20°C° 0 mm 2 m/S 746 mmHg 31%
20:00 +19°C° 0 mm 2 m/S 746 mmHg 34%
21:00 +18°C° 0 mm 3 m/S 746 mmHg 41%
22:00 +17°C° 0 mm 4 m/S 746 mmHg 48%
23:00 +15°C° 0 mm 4 m/S 746 mmHg 56%

14 April, Mittwoch

Zeit Temperatur Niederschläge Wind Luftdruck Luftfeuchtigkeit
00:00 +15°C° 0 mm 4 m/S 746 mmHg 59%
01:00 +14°C° 0 mm 3 m/S 746 mmHg 62%
02:00 +14°C° 0 mm 3 m/S 746 mmHg 65%
03:00 +14°C° 0 mm 3 m/S 746 mmHg 66%
04:00 +13°C° 0 mm 3 m/S 745 mmHg 68%
05:00 +13°C° 0 mm 3 m/S 745 mmHg 69%
06:00 +14°C° 0 mm 3 m/S 745 mmHg 66%
07:00 +15°C° 0 mm 4 m/S 746 mmHg 62%
08:00 +17°C° 0 mm 4 m/S 746 mmHg 58%
09:00 +19°C° 0 mm 4 m/S 746 mmHg 51%
10:00 +21°C° 0 mm 4 m/S 745 mmHg 44%
11:00 +22°C° 0 mm 4 m/S 745 mmHg 37%
12:00 +24°C° 0 mm 3 m/S 745 mmHg 34%
13:00 +25°C° 0 mm 3 m/S 744 mmHg 30%
14:00 +26°C° 0 mm 2 m/S 744 mmHg 26%
15:00 +26°C° 0 mm 2 m/S 743 mmHg 25%
16:00 +26°C° 0 mm 2 m/S 743 mmHg 23%
17:00 +26°C° 0 mm 2 m/S 742 mmHg 22%
18:00 +25°C° 0 mm 3 m/S 742 mmHg 25%
19:00 +24°C° 0 mm 3 m/S 742 mmHg 28%
20:00 +22°C° 0 mm 4 m/S 741 mmHg 30%
21:00 +21°C° 0 mm 4 m/S 741 mmHg 36%
22:00 +20°C° 0 mm 4 m/S 741 mmHg 41%
23:00 +19°C° 0 mm 4 m/S 740 mmHg 46%

15 April, Donnerstag

Zeit Temperatur Niederschläge Wind Luftdruck Luftfeuchtigkeit
00:00 +18°C° 0 mm 4 m/S 740 mmHg 50%
01:00 +18°C° 0 mm 4 m/S 740 mmHg 54%
02:00 +18°C° 0 mm 3 m/S 740 mmHg 58%
03:00 +17°C° 0 mm 3 m/S 740 mmHg 55%
04:00 +17°C° 0 mm 3 m/S 740 mmHg 53%
05:00 +16°C° 0 mm 3 m/S 740 mmHg 50%
06:00 +17°C° 0 mm 3 m/S 741 mmHg 47%
07:00 +17°C° 0 mm 4 m/S 741 mmHg 44%
08:00 +17°C° 0 mm 5 m/S 742 mmHg 42%
09:00 +19°C° 0 mm 5 m/S 742 mmHg 39%
10:00 +20°C° 0 mm 5 m/S 742 mmHg 36%
11:00 +21°C° 0 mm 5 m/S 742 mmHg 33%
12:00 +22°C° 0 mm 6 m/S 742 mmHg 31%
13:00 +22°C° 0 mm 6 m/S 742 mmHg 29%
14:00 +23°C° 0 mm 6 m/S 742 mmHg 27%
15:00 +23°C° 0 mm 6 m/S 742 mmHg 26%
16:00 +23°C° 0 mm 5 m/S 742 mmHg 25%
17:00 +23°C° 0 mm 5 m/S 742 mmHg 25%
18:00 +22°C° 0 mm 4 m/S 742 mmHg 27%
19:00 +21°C° 0 mm 4 m/S 742 mmHg 30%
20:00 +20°C° 0 mm 3 m/S 742 mmHg 32%
21:00 +19°C° 0 mm 2 m/S 742 mmHg 34%
22:00 +19°C° 0 mm 2 m/S 741 mmHg 35%
23:00 +18°C° 0 mm 2 m/S 741 mmHg 37%
Mehr zeigen

Wir brauchen deine Erlaubnis

Meteoprog und unser Service Anbieter werden persönliche Daten aufbewahren, so wie Cookies, Geräte Bezeichnung oder ähnliche Technologien von deinem Gerät und Prozess, so wie Persönliche Daten Inhalte und Werbungen, genauso wie social Media und den Verkehr zu analysieren.

  • Aufbewahrung und/oder Zugang zu deiner Geräte Informationen.

    Cookies, Geräte Bezeichnung oder andere Informationen, können aufbewahrt oder Zugang zu deinem Gerät erhalten, für den Grund, der oben angegeben wird.

  • Personalisierte Werbung und Inhalte, Messungen, Einblick in das Publikum und Produkt Entwicklung.

    Werbungen und Inhalte können personalisiert werden, basierend auf ein Profil. Mehr Daten können besser personalisierte Werbungen und Inhalte hinzufügen. Werbung und Inhalte können gezeigt und gemessen werden. Einblicke über das Publikum, welche die Werbung gesehen haben und den Inhalt, können abgeleitet werden. So wie Daten können genutzt werden, um es zu verbessern oder die Benutzer Erfahrung zu verbessern das System und die Software.

Wenn du “Ich stimme zu” klickst, erlaubst du uns, die Cookies zu benutzen die Geräte Bezeichnung, den Web oder ähnliche Technologien zu benutzen. Deine Settings, können in deinem Gerät bei deinem Browser geändert werden.

Für den bestimmten Zweck, berechtigten Interessen beruhen darauf, mehr als auf den Inhalt. Du kannst mehr darüber in unseren Privaten und Cookie Politik lesen.